Regional Weather Roundup
Issued by NWS Sioux Falls, SD

Home | Current Version | Previous Version | Graphics & Text | Print | Product List | Glossary Off
Versions: 1 2 3 4 5 6 7 8 9 10 11 12 13 14 15 16 17 18 19 20 21 22 23 24 25 26 27 28 29 30 31 32 33 34 35 36 37 38 39 40 41 42 43 44 45 46 47 48 49 50

650
ASUS43 KFSD 110202
RWRFSD

WEATHER ROUNDUP FOR SE SOUTH DAKOTA/SW MINNESOTA/NW IOWA
NATIONAL WEATHER SERVICE SIOUX FALLS SD
800 PM CST WED FEB 10 2016

NOTE: "FAIR" INDICATES FEW OR NO CLOUDS BELOW 12,000 FEET WITH NO
SIGNIFICANT WEATHER AND OR OBSTRUCTIONS TO VISIBILITY.


SDZ038>040-050-052>070-110300-
SOUTHEAST SOUTH DAKOTA

CITY           SKY/WX    TMP DP  RH WIND       PRES   REMARKS
BROOKINGS      CLOUDY    10   5  80 E8        30.17R WCI  -2
CHAMBERLAIN    CLOUDY    27  23  85 NE7       30.14R WCI  19
HURON          CLOUDY    18  12  77 E8        30.17S WCI   8
MADISON        CLOUDY    10  10 100 E12       30.14R WCI  -4
MITCHELL       CLOUDY    20  15  81 E9        30.18R WCI   9
SIOUX FALLS    CLOUDY    14   8  77 NE13      30.16R WCI   0
WINNER         CLOUDY    32  26  78 N9        30.11R WCI  24
YANKTON        CLOUDY    19  14  79 NE12      30.15R WCI   7
$$

MNZ071-072-080-081-089-090-097-098-110300-
SOUTHWEST MINNESOTA

CITY           SKY/WX    TMP DP  RH WIND       PRES   REMARKS
FAIRMONT       CLOUDY     5  -2  72 N3        30.17R
JACKSON        CLOUDY    12   3  67 N5        30.18R WCI   4
LUVERNE        CLOUDY    14   9  79 NE10      30.18R WCI   1
MARSHALL       CLOUDY    12   6  77 N3        30.22R
MONTEVIDEO     CLOUDY    12   7  79 N5        30.25R WCI   4
PIPESTONE      CLOUDY    12   3  67 E5        30.15R WCI   4
REDWOOD FALLS  CLOUDY    13   3  64 N3        30.23R
TRACY          CLOUDY    13   6  76 N3        30.21R
WINDOM         CLOUDY    10   5  79 CALM      30.18R
WORTHINGTON    CLOUDY    10   3  72 NE12      30.16R WCI  -4
$$

IAZ001>003-012>014-020>022-031-032-NEZ013-014-SDZ071-110300-
NORTHWEST IOWA

CITY           SKY/WX    TMP DP  RH WIND       PRES   REMARKS
DENISON        CLOUDY    18  14  86 E9        30.11R WCI   6
ESTHERVILLE    CLOUDY    11   4  73 N9        30.17R WCI  -2
SIOUX CITY     CLOUDY    20  13  74 E9        30.13R WCI   9
SPENCER        CLOUDY    13   6  74 NE9       30.16R WCI   1
STORM LAKE     CLOUDY    14  12  92 NE15      30.13R WCI  -1
$$

ABBREVIATIONS USED IN REMARKS
   TC - TEMPERATURE IN CELSIUS
  WCI - WIND CHILL INDEX
   HX - HEAT INDEX
  VSB - VISIBILITY





USA.gov is the U.S. government's official web portal to all federal, state and local government web resources and services.